Location: Cave
(41.8160°N, 12.9350°E)
Time: 22:17:31
(UTC+01:00)

ISS - Pass Details

Date: 22 February 2019
Orbit: 406 x 411 km, 51.6° (Epoch: 23 March)

Event Time Altitude Azimuth Distance (km) Brightness Sun altitude
Rises 05:41:22 0° 189° (S) 2,309 -0.1 -14.4°
Reaches altitude 10° 05:44:13 10° 162° (SSE) 1,456 -0.8 -13.8°
Maximum altitude 05:45:54 13° 131° (SE) 1,268 -0.6 -13.5°
Drops below altitude 10° 05:47:35 10° 99° (E) 1,462 0.4 -13.2°
Sets 05:50:36 0° 71° (ENE) 2,378 1.5 -12.6°
